Year,Month,Day,Hour,Minute,Value (Times are PST for temperature in C)
2016,04,20,00,00,14.60
2016,04,20,00,01,14.60
2016,04,20,00,02,14.50
2016,04,20,00,03,14.50
2016,04,20,00,04,14.50
2016,04,20,00,05,14.40
2016,04,20,00,06,14.40
2016,04,20,00,07,14.30
2016,04,20,00,08,14.30
2016,04,20,00,09,14.30
2016,04,20,00,10,14.30
2016,04,20,00,11,14.30
2016,04,20,00,12,14.20
2016,04,20,00,13,14.20
2016,04,20,00,14,14.20
2016,04,20,00,15,14.20
2016,04,20,00,16,14.10
2016,04,20,00,17,14.10
2016,04,20,00,18,14.10
2016,04,20,00,19,14.10
2016,04,20,00,20,14.00
2016,04,20,00,21,14.00
2016,04,20,00,22,14.00
2016,04,20,00,23,13.90
2016,04,20,00,24,13.90
2016,04,20,00,25,13.90
2016,04,20,00,26,13.90
2016,04,20,00,27,13.80
2016,04,20,00,28,13.80
2016,04,20,00,29,13.80
2016,04,20,00,30,13.80
2016,04,20,00,31,13.70
2016,04,20,00,32,13.70
2016,04,20,00,33,13.70
2016,04,20,00,34,13.70
2016,04,20,00,35,13.60
2016,04,20,00,36,13.60
2016,04,20,00,37,13.60
2016,04,20,00,38,13.60
2016,04,20,00,39,13.60
2016,04,20,00,40,13.50
2016,04,20,00,41,13.50
2016,04,20,00,42,13.50
2016,04,20,00,43,13.50
2016,04,20,00,44,13.50
2016,04,20,00,45,13.50
2016,04,20,00,46,13.40
2016,04,20,00,47,13.40
2016,04,20,00,48,13.40
2016,04,20,00,49,13.40
2016,04,20,00,50,13.40
2016,04,20,00,51,13.40
2016,04,20,00,52,13.30
2016,04,20,00,53,13.30
2016,04,20,00,54,13.30
2016,04,20,00,55,13.30
2016,04,20,00,56,13.30
2016,04,20,00,57,13.30
2016,04,20,00,58,13.30
2016,04,20,00,59,13.30
2016,04,20,01,00,13.30
2016,04,20,01,01,13.30
2016,04,20,01,02,13.30
2016,04,20,01,03,13.30
2016,04,20,01,04,13.30
2016,04,20,01,05,13.40
2016,04,20,01,06,13.40
2016,04,20,01,07,13.40
2016,04,20,01,08,13.50
2016,04,20,01,09,13.50
2016,04,20,01,10,13.50
2016,04,20,01,11,13.60
2016,04,20,01,12,13.60
2016,04,20,01,13,13.50
2016,04,20,01,14,13.50
2016,04,20,01,15,13.50
2016,04,20,01,16,13.40
2016,04,20,01,17,13.40
2016,04,20,01,18,13.40
2016,04,20,01,19,13.40
2016,04,20,01,20,13.40
2016,04,20,01,21,13.40
2016,04,20,01,22,13.40
2016,04,20,01,23,13.40
2016,04,20,01,24,13.40
2016,04,20,01,25,13.40
2016,04,20,01,26,13.30
2016,04,20,01,27,13.30
2016,04,20,01,28,13.30
2016,04,20,01,29,13.20
2016,04,20,01,30,13.20
2016,04,20,01,31,13.20
2016,04,20,01,32,13.20
2016,04,20,01,33,13.20
2016,04,20,01,34,13.20
2016,04,20,01,35,13.10
2016,04,20,01,36,13.10
2016,04,20,01,37,13.10
2016,04,20,01,38,13.10
2016,04,20,01,39,13.10
2016,04,20,01,40,13.00
2016,04,20,01,41,13.00
2016,04,20,01,42,13.00
2016,04,20,01,43,13.00
2016,04,20,01,44,12.90
2016,04,20,01,45,12.90
2016,04,20,01,46,12.90
2016,04,20,01,47,12.90
2016,04,20,01,48,12.90
2016,04,20,01,49,12.90
2016,04,20,01,50,12.90
2016,04,20,01,51,12.90
2016,04,20,01,52,12.80
2016,04,20,01,53,12.80
2016,04,20,01,54,12.80
2016,04,20,01,55,12.70
2016,04,20,01,56,12.70
2016,04,20,01,57,12.70
2016,04,20,01,58,12.60
2016,04,20,01,59,12.60
2016,04,20,02,00,12.60
2016,04,20,02,01,12.60
2016,04,20,02,02,12.60
2016,04,20,02,03,12.50
2016,04,20,02,04,12.50
2016,04,20,02,05,12.50
2016,04,20,02,06,12.50
2016,04,20,02,07,12.50
2016,04,20,02,08,12.50
2016,04,20,02,09,12.50
2016,04,20,02,10,12.50
2016,04,20,02,11,12.40
2016,04,20,02,12,12.40
2016,04,20,02,13,12.40
2016,04,20,02,14,12.40
2016,04,20,02,15,12.30
2016,04,20,02,16,12.30
2016,04,20,02,17,12.30
2016,04,20,02,18,12.30
2016,04,20,02,19,12.30
2016,04,20,02,20,12.20
2016,04,20,02,21,12.20
2016,04,20,02,22,12.20
2016,04,20,02,23,12.20
2016,04,20,02,24,12.20
2016,04,20,02,25,12.20
2016,04,20,02,26,12.10
2016,04,20,02,27,12.10
2016,04,20,02,28,12.10
2016,04,20,02,29,12.10
2016,04,20,02,30,12.10
2016,04,20,02,31,12.10
2016,04,20,02,32,12.00
2016,04,20,02,33,12.00
2016,04,20,02,34,12.00
2016,04,20,02,35,12.00
2016,04,20,02,36,12.00
2016,04,20,02,37,12.00
2016,04,20,02,38,12.00
2016,04,20,02,39,12.00
2016,04,20,02,40,12.00
2016,04,20,02,41,12.00
2016,04,20,02,42,12.00
2016,04,20,02,43,12.00
2016,04,20,02,44,12.00
2016,04,20,02,45,12.00
2016,04,20,02,46,12.00
2016,04,20,02,47,12.00
2016,04,20,02,48,12.00
2016,04,20,02,49,12.00
2016,04,20,02,50,12.00
2016,04,20,02,51,12.10
2016,04,20,02,52,12.10
2016,04,20,02,53,12.10
2016,04,20,02,54,12.10
2016,04,20,02,55,12.10
2016,04,20,02,56,12.10
2016,04,20,02,57,12.20
2016,04,20,02,58,12.20
2016,04,20,02,59,12.20
2016,04,20,03,00,12.10
2016,04,20,03,01,12.10
2016,04,20,03,02,12.10
2016,04,20,03,03,12.10
2016,04,20,03,04,12.00
2016,04,20,03,05,12.00
2016,04,20,03,06,12.00
2016,04,20,03,07,12.00
2016,04,20,03,08,12.00
2016,04,20,03,09,12.00
2016,04,20,03,10,12.10
2016,04,20,03,11,12.10
2016,04,20,03,12,12.10
2016,04,20,03,13,12.10
2016,04,20,03,14,12.10
2016,04,20,03,15,12.10
2016,04,20,03,16,12.00
2016,04,20,03,17,12.00
2016,04,20,03,18,12.00
2016,04,20,03,19,12.00
2016,04,20,03,20,11.90
2016,04,20,03,21,11.90
2016,04,20,03,22,11.90
2016,04,20,03,23,11.90
2016,04,20,03,24,11.90
2016,04,20,03,25,11.90
2016,04,20,03,26,11.90
2016,04,20,03,27,11.90
2016,04,20,03,28,11.90
2016,04,20,03,29,11.80
2016,04,20,03,30,11.80
2016,04,20,03,31,11.80
2016,04,20,03,32,11.80
2016,04,20,03,33,11.80
2016,04,20,03,34,11.80
2016,04,20,03,35,11.70
2016,04,20,03,36,11.70
2016,04,20,03,37,11.70
2016,04,20,03,38,11.70
2016,04,20,03,39,11.70
2016,04,20,03,40,11.70
2016,04,20,03,41,11.60
2016,04,20,03,42,11.60
2016,04,20,03,43,11.60
2016,04,20,03,44,11.60
2016,04,20,03,45,11.50
2016,04,20,03,46,11.50
2016,04,20,03,47,11.50
2016,04,20,03,48,11.50
2016,04,20,03,49,11.50
2016,04,20,03,50,11.40
2016,04,20,03,51,11.40
2016,04,20,03,52,11.40
2016,04,20,03,53,11.40
2016,04,20,03,54,11.40
2016,04,20,03,55,11.40
2016,04,20,03,56,11.40
2016,04,20,03,57,11.40
2016,04,20,03,58,11.40
2016,04,20,03,59,11.40
2016,04,20,04,00,11.40
2016,04,20,04,01,11.40
2016,04,20,04,02,11.40
2016,04,20,04,03,11.40
2016,04,20,04,04,11.40
2016,04,20,04,05,11.40
2016,04,20,04,06,11.40
2016,04,20,04,07,11.40
2016,04,20,04,08,11.40
2016,04,20,04,09,11.40
2016,04,20,04,10,11.40
2016,04,20,04,11,11.40
2016,04,20,04,12,11.40
2016,04,20,04,13,11.40
2016,04,20,04,14,11.40
2016,04,20,04,15,11.40
2016,04,20,04,16,11.30
2016,04,20,04,17,11.30
2016,04,20,04,18,11.30
2016,04,20,04,19,11.20
2016,04,20,04,20,11.20
2016,04,20,04,21,11.20
2016,04,20,04,22,11.10
2016,04,20,04,23,11.10
2016,04,20,04,24,11.10
2016,04,20,04,25,11.00
2016,04,20,04,26,11.00
2016,04,20,04,27,11.00
2016,04,20,04,28,11.00
2016,04,20,04,29,11.00
2016,04,20,04,30,11.00
2016,04,20,04,31,11.00
2016,04,20,04,32,11.00
2016,04,20,04,33,11.10
2016,04,20,04,34,11.10
2016,04,20,04,35,11.10
2016,04,20,04,36,11.10
2016,04,20,04,37,11.10
2016,04,20,04,38,11.10
2016,04,20,04,39,11.10
2016,04,20,04,40,11.10
2016,04,20,04,41,11.10
2016,04,20,04,42,11.10
2016,04,20,04,43,11.10
2016,04,20,04,44,11.10
2016,04,20,04,45,11.10
2016,04,20,04,46,11.10
2016,04,20,04,47,11.10
2016,04,20,04,48,11.10
2016,04,20,04,49,11.10
2016,04,20,04,50,11.00
2016,04,20,04,51,11.00
2016,04,20,04,52,11.10
2016,04,20,04,53,11.10
2016,04,20,04,54,11.20
2016,04,20,04,55,11.40
2016,04,20,04,56,11.50
2016,04,20,04,57,11.60
2016,04,20,04,58,11.60
2016,04,20,04,59,11.60
2016,04,20,05,00,11.60
2016,04,20,05,01,11.50
2016,04,20,05,02,11.50
2016,04,20,05,03,11.40
2016,04,20,05,04,11.40
2016,04,20,05,05,11.30
2016,04,20,05,06,11.30
2016,04,20,05,07,11.30
2016,04,20,05,08,11.20
2016,04,20,05,09,11.20
2016,04,20,05,10,11.20
2016,04,20,05,11,11.10
2016,04,20,05,12,11.10
2016,04,20,05,13,11.10
2016,04,20,05,14,11.00
2016,04,20,05,15,11.00
2016,04,20,05,16,11.00
2016,04,20,05,17,11.10
2016,04,20,05,18,11.10
2016,04,20,05,19,11.10
2016,04,20,05,20,11.20
2016,04,20,05,21,11.20
2016,04,20,05,22,11.20
2016,04,20,05,23,11.20
2016,04,20,05,24,11.30
2016,04,20,05,25,11.30
2016,04,20,05,26,11.30
2016,04,20,05,27,11.40
2016,04,20,05,28,11.40
2016,04,20,05,29,11.40
2016,04,20,05,30,11.30
2016,04,20,05,31,11.30
2016,04,20,05,32,11.30
2016,04,20,05,33,11.30
2016,04,20,05,34,11.30
2016,04,20,05,35,11.20
2016,04,20,05,36,11.20
2016,04,20,05,37,11.20
2016,04,20,05,38,11.30
2016,04,20,05,39,11.30
2016,04,20,05,40,11.30
2016,04,20,05,41,11.30
2016,04,20,05,42,11.40
2016,04,20,05,43,11.50
2016,04,20,05,44,11.70
2016,04,20,05,45,11.90
2016,04,20,05,46,12.00
2016,04,20,05,47,12.20
2016,04,20,05,48,12.40
2016,04,20,05,49,12.50
2016,04,20,05,50,12.50
2016,04,20,05,51,12.40
2016,04,20,05,52,12.40
2016,04,20,05,53,12.20
2016,04,20,05,54,12.10
2016,04,20,05,55,12.00
2016,04,20,05,56,11.90
2016,04,20,05,57,11.80
2016,04,20,05,58,11.80
2016,04,20,05,59,11.80
2016,04,20,06,00,11.90
2016,04,20,06,01,11.90
2016,04,20,06,02,12.00
2016,04,20,06,03,12.00
2016,04,20,06,04,11.90
2016,04,20,06,05,11.90
2016,04,20,06,06,11.90
2016,04,20,06,07,11.80
2016,04,20,06,08,11.70
2016,04,20,06,09,11.70
2016,04,20,06,10,11.60
2016,04,20,06,11,11.50
2016,04,20,06,12,11.50
2016,04,20,06,13,11.40
2016,04,20,06,14,11.40
2016,04,20,06,15,11.30
2016,04,20,06,16,11.30
2016,04,20,06,17,11.30
2016,04,20,06,18,11.30
2016,04,20,06,19,11.20
2016,04,20,06,20,11.20
2016,04,20,06,21,11.20
2016,04,20,06,22,11.20
2016,04,20,06,23,11.10
2016,04,20,06,24,11.10
2016,04,20,06,25,11.10
2016,04,20,06,26,11.10
2016,04,20,06,27,11.00
2016,04,20,06,28,11.00
2016,04,20,06,29,11.00
2016,04,20,06,30,11.00
2016,04,20,06,31,11.10
2016,04,20,06,32,11.10
2016,04,20,06,33,11.10
2016,04,20,06,34,11.10
2016,04,20,06,35,11.10
2016,04,20,06,36,11.10
2016,04,20,06,37,11.10
2016,04,20,06,38,11.10
2016,04,20,06,39,11.10
2016,04,20,06,40,11.20
2016,04,20,06,41,11.20
2016,04,20,06,42,11.20
2016,04,20,06,43,11.20
2016,04,20,06,44,11.20
2016,04,20,06,45,11.30
2016,04,20,06,46,11.30
2016,04,20,06,47,11.30
2016,04,20,06,48,11.30
2016,04,20,06,49,11.30
2016,04,20,06,50,11.30
2016,04,20,06,51,11.40
2016,04,20,06,52,11.40
2016,04,20,06,53,11.40
2016,04,20,06,54,11.50
2016,04,20,06,55,11.50
2016,04,20,06,56,11.50
2016,04,20,06,57,11.50
2016,04,20,06,58,11.60
2016,04,20,06,59,11.60
2016,04,20,07,00,11.60
2016,04,20,07,01,11.60
2016,04,20,07,02,11.60
2016,04,20,07,03,11.70
2016,04,20,07,04,11.70
2016,04,20,07,05,11.70
2016,04,20,07,06,11.70
2016,04,20,07,07,11.70
2016,04,20,07,08,11.80
2016,04,20,07,09,11.80
2016,04,20,07,10,11.80
2016,04,20,07,11,11.80
2016,04,20,07,12,11.80
2016,04,20,07,13,11.90
2016,04,20,07,14,11.90
2016,04,20,07,15,12.00
2016,04,20,07,16,12.00
2016,04,20,07,17,12.00
2016,04,20,07,18,12.10
2016,04,20,07,19,12.10
2016,04,20,07,20,12.20
2016,04,20,07,21,12.20
2016,04,20,07,22,12.30
2016,04,20,07,23,12.30
2016,04,20,07,24,12.30
2016,04,20,07,25,12.40
2016,04,20,07,26,12.40
2016,04,20,07,27,12.50
2016,04,20,07,28,12.50
2016,04,20,07,29,12.60
2016,04,20,07,30,12.60
2016,04,20,07,31,12.70
2016,04,20,07,32,12.70
2016,04,20,07,33,12.70
2016,04,20,07,34,12.70
2016,04,20,07,35,12.80
2016,04,20,07,36,12.80
2016,04,20,07,37,12.90
2016,04,20,07,38,13.00
2016,04,20,07,39,13.10
2016,04,20,07,40,13.20
2016,04,20,07,41,13.30
2016,04,20,07,42,13.30
2016,04,20,07,43,13.40
2016,04,20,07,44,13.40
2016,04,20,07,45,13.50
2016,04,20,07,46,13.50
2016,04,20,07,47,13.60
2016,04,20,07,48,13.60
2016,04,20,07,49,13.60
2016,04,20,07,50,13.70
2016,04,20,07,51,13.70
2016,04,20,07,52,13.70
2016,04,20,07,53,13.80
2016,04,20,07,54,13.80
2016,04,20,07,55,13.80
2016,04,20,07,56,13.90
2016,04,20,07,57,13.90
2016,04,20,07,58,13.90
2016,04,20,07,59,13.90
2016,04,20,08,00,14.00
2016,04,20,08,01,14.00
2016,04,20,08,02,14.00
2016,04,20,08,03,14.10
2016,04,20,08,04,14.10
2016,04,20,08,05,14.10
2016,04,20,08,06,14.20
2016,04,20,08,07,14.30
2016,04,20,08,08,14.30
2016,04,20,08,09,14.40
2016,04,20,08,10,14.50
2016,04,20,08,11,14.60
2016,04,20,08,12,14.60
2016,04,20,08,13,14.70
2016,04,20,08,14,14.80
2016,04,20,08,15,14.80
2016,04,20,08,16,14.90
2016,04,20,08,17,15.00
2016,04,20,08,18,15.00
2016,04,20,08,19,15.10
2016,04,20,08,20,15.10
2016,04,20,08,21,15.20
2016,04,20,08,22,15.30
2016,04,20,08,23,15.30
2016,04,20,08,24,15.40
2016,04,20,08,25,15.50
2016,04,20,08,26,15.60
2016,04,20,08,27,15.70
2016,04,20,08,28,15.80
2016,04,20,08,29,15.90
2016,04,20,08,30,16.00
2016,04,20,08,31,16.20
2016,04,20,08,32,16.30
2016,04,20,08,33,16.40
2016,04,20,08,34,16.50
2016,04,20,08,35,16.70
2016,04,20,08,36,16.70
2016,04,20,08,37,16.80
2016,04,20,08,38,16.80
2016,04,20,08,39,16.90
2016,04,20,08,40,16.90
2016,04,20,08,41,17.00
2016,04,20,08,42,17.00
2016,04,20,08,43,17.10
2016,04,20,08,44,17.20
2016,04,20,08,45,17.30
2016,04,20,08,46,17.50
2016,04,20,08,47,17.70
2016,04,20,08,48,17.80
2016,04,20,08,49,17.90
2016,04,20,08,50,18.10
2016,04,20,08,51,18.30
2016,04,20,08,52,18.40
2016,04,20,08,53,18.50
2016,04,20,08,54,18.60
2016,04,20,08,55,18.70
2016,04,20,08,56,18.80
2016,04,20,08,57,18.90
2016,04,20,08,58,19.00
2016,04,20,08,59,19.10
2016,04,20,09,00,19.10
2016,04,20,09,01,19.20
2016,04,20,09,02,19.20
2016,04,20,09,03,19.20
2016,04,20,09,04,19.30
2016,04,20,09,05,19.40
2016,04,20,09,06,19.50
2016,04,20,09,07,19.60
2016,04,20,09,08,19.60
2016,04,20,09,09,19.60
2016,04,20,09,10,19.60
2016,04,20,09,11,19.70
2016,04,20,09,12,19.70
2016,04,20,09,13,19.70
2016,04,20,09,14,19.80
2016,04,20,09,15,19.90
2016,04,20,09,16,19.90
2016,04,20,09,17,19.90
2016,04,20,09,18,20.00
2016,04,20,09,19,20.00
2016,04,20,09,20,20.10
2016,04,20,09,21,20.10
2016,04,20,09,22,20.20
2016,04,20,09,23,20.20
2016,04,20,09,24,20.20
2016,04,20,09,25,20.30
2016,04,20,09,26,20.30
2016,04,20,09,27,20.40
2016,04,20,09,28,20.40
2016,04,20,09,29,20.50
2016,04,20,09,30,20.50
2016,04,20,09,31,20.50
2016,04,20,09,32,20.60
2016,04,20,09,33,20.60
2016,04,20,09,34,20.60
2016,04,20,09,35,20.60
2016,04,20,09,36,20.60
2016,04,20,09,37,20.60
2016,04,20,09,38,20.60
2016,04,20,09,39,20.60
2016,04,20,09,40,20.60
2016,04,20,09,41,20.60
2016,04,20,09,42,20.60
2016,04,20,09,43,20.60
2016,04,20,09,44,20.60
2016,04,20,09,45,20.60
2016,04,20,09,46,20.60
2016,04,20,09,47,20.70
2016,04,20,09,48,20.70
2016,04,20,09,49,20.80
2016,04,20,09,50,20.80
2016,04,20,09,51,20.90
2016,04,20,09,52,21.00
2016,04,20,09,53,21.00
2016,04,20,09,54,21.00
2016,04,20,09,55,21.00
2016,04,20,09,56,21.00
2016,04,20,09,57,20.90
2016,04,20,09,58,20.90
2016,04,20,09,59,20.90
2016,04,20,10,00,20.90
2016,04,20,10,01,20.90
2016,04,20,10,02,20.90
2016,04,20,10,03,20.90
2016,04,20,10,04,20.90
2016,04,20,10,05,20.90
2016,04,20,10,06,20.90
2016,04,20,10,07,20.90
2016,04,20,10,08,21.00
2016,04,20,10,09,21.00
2016,04,20,10,10,21.10
2016,04,20,10,11,21.10
2016,04,20,10,12,21.10
2016,04,20,10,13,21.10
2016,04,20,10,14,21.10
2016,04,20,10,15,21.10
2016,04,20,10,16,21.20
2016,04,20,10,17,21.20
2016,04,20,10,18,21.30
2016,04,20,10,19,21.40
2016,04,20,10,20,21.50
2016,04,20,10,21,21.60
2016,04,20,10,22,21.60
2016,04,20,10,23,21.70
2016,04,20,10,24,21.70
2016,04,20,10,25,21.70
2016,04,20,10,26,21.60
2016,04,20,10,27,21.70
2016,04,20,10,28,21.70
2016,04,20,10,29,21.80
2016,04,20,10,30,21.90
2016,04,20,10,31,21.90
2016,04,20,10,32,22.00
2016,04,20,10,33,22.00
2016,04,20,10,34,22.10
2016,04,20,10,35,22.10
2016,04,20,10,36,22.20
2016,04,20,10,37,22.20
2016,04,20,10,38,22.30
2016,04,20,10,39,22.30
2016,04,20,10,40,22.30
2016,04,20,10,41,22.40
2016,04,20,10,42,22.40
2016,04,20,10,43,22.50
2016,04,20,10,44,22.50
2016,04,20,10,45,22.50
2016,04,20,10,46,22.50
2016,04,20,10,47,22.50
2016,04,20,10,48,22.50
2016,04,20,10,49,22.60
2016,04,20,10,50,22.70
2016,04,20,10,51,22.80
2016,04,20,10,52,22.80
2016,04,20,10,53,22.80
2016,04,20,10,54,22.90
2016,04,20,10,55,22.90
2016,04,20,10,56,22.90
2016,04,20,10,57,23.00
2016,04,20,10,58,23.00
2016,04,20,10,59,23.10
2016,04,20,11,00,23.10
2016,04,20,11,01,23.20
2016,04,20,11,02,23.20
2016,04,20,11,03,23.30
2016,04,20,11,04,23.30
2016,04,20,11,05,23.30
2016,04,20,11,06,23.20
2016,04,20,11,07,23.20
2016,04,20,11,08,23.20
2016,04,20,11,09,23.20
2016,04,20,11,10,23.20
2016,04,20,11,11,23.20
2016,04,20,11,12,23.30
2016,04,20,11,13,23.30
2016,04,20,11,14,23.30
2016,04,20,11,15,23.30
2016,04,20,11,16,23.30
2016,04,20,11,17,23.20
2016,04,20,11,18,23.20
2016,04,20,11,19,23.20
2016,04,20,11,20,23.20
2016,04,20,11,21,23.20
2016,04,20,11,22,23.20
2016,04,20,11,23,23.20
2016,04,20,11,24,23.20
2016,04,20,11,25,23.30
2016,04,20,11,26,23.30
2016,04,20,11,27,23.20
2016,04,20,11,28,23.20
2016,04,20,11,29,23.20
2016,04,20,11,30,23.10
2016,04,20,11,31,23.10
2016,04,20,11,32,23.10
2016,04,20,11,33,23.00
2016,04,20,11,34,23.00
2016,04,20,11,35,23.00
2016,04,20,11,36,23.00
2016,04,20,11,37,23.00
2016,04,20,11,38,23.00
2016,04,20,11,39,23.00
2016,04,20,11,40,23.00
2016,04,20,11,41,23.10
2016,04,20,11,42,23.10
2016,04,20,11,43,23.10
2016,04,20,11,44,23.00
2016,04,20,11,45,23.00
2016,04,20,11,46,22.90
2016,04,20,11,47,22.90
2016,04,20,11,48,23.00
2016,04,20,11,49,23.00
2016,04,20,11,50,23.00
2016,04,20,11,51,23.00
2016,04,20,11,52,23.00
2016,04,20,11,53,23.00
2016,04,20,11,54,23.10
2016,04,20,11,55,23.20
2016,04,20,11,56,23.30
2016,04,20,11,57,23.30
2016,04,20,11,58,23.30
2016,04,20,11,59,23.20
2016,04,20,12,00,23.20
2016,04,20,12,01,23.20
2016,04,20,12,02,23.20
2016,04,20,12,03,23.20
2016,04,20,12,04,23.10
2016,04,20,12,05,23.10
2016,04,20,12,06,23.10
2016,04,20,12,07,23.10
2016,04,20,12,08,23.10
2016,04,20,12,09,23.10
2016,04,20,12,10,23.20
2016,04,20,12,11,23.30
2016,04,20,12,12,23.30
2016,04,20,12,13,23.40
2016,04,20,12,14,23.40
2016,04,20,12,15,23.40
2016,04,20,12,16,23.40
2016,04,20,12,17,23.40
2016,04,20,12,18,23.30
2016,04,20,12,19,23.20
2016,04,20,12,20,23.20
2016,04,20,12,21,23.30
2016,04,20,12,22,23.30
2016,04,20,12,23,23.30
2016,04,20,12,24,23.40
2016,04,20,12,25,23.50
2016,04,20,12,26,23.60
2016,04,20,12,27,23.70
2016,04,20,12,28,23.60
2016,04,20,12,29,23.60
2016,04,20,12,30,23.60
2016,04,20,12,31,23.60
2016,04,20,12,32,23.50
2016,04,20,12,33,23.40
2016,04,20,12,34,23.40
2016,04,20,12,35,23.40
2016,04,20,12,36,23.60
2016,04,20,12,37,23.70
2016,04,20,12,38,23.60
2016,04,20,12,39,23.60
2016,04,20,12,40,23.60
2016,04,20,12,41,23.50
2016,04,20,12,42,23.50
2016,04,20,12,43,23.50
2016,04,20,12,44,23.60
2016,04,20,12,45,23.70
2016,04,20,12,46,23.70
2016,04,20,12,47,23.80
2016,04,20,12,48,23.80
2016,04,20,12,49,23.90
2016,04,20,12,50,23.90
2016,04,20,12,51,23.80
2016,04,20,12,52,23.80
2016,04,20,12,53,23.80
2016,04,20,12,54,23.80
2016,04,20,12,55,23.90
2016,04,20,12,56,23.90
2016,04,20,12,57,23.90
2016,04,20,12,58,24.00
2016,04,20,12,59,24.00
2016,04,20,13,00,24.00
2016,04,20,13,01,24.10
2016,04,20,13,02,24.00
2016,04,20,13,03,24.00
2016,04,20,13,04,24.10
2016,04,20,13,05,24.10
2016,04,20,13,06,24.10
2016,04,20,13,07,24.20
2016,04,20,13,08,24.10
2016,04,20,13,09,24.10
2016,04,20,13,10,24.10
2016,04,20,13,11,24.10
2016,04,20,13,12,24.10
2016,04,20,13,13,24.10
2016,04,20,13,14,24.10
2016,04,20,13,15,24.10
2016,04,20,13,16,24.20
2016,04,20,13,17,24.20
2016,04,20,13,18,24.20
2016,04,20,13,19,24.40
2016,04,20,13,20,24.50
2016,04,20,13,21,24.60
2016,04,20,13,22,24.70
2016,04,20,13,23,24.70
2016,04,20,13,24,24.60
2016,04,20,13,25,24.50
2016,04,20,13,26,24.50
2016,04,20,13,27,24.40
2016,04,20,13,28,24.40
2016,04,20,13,29,24.40
2016,04,20,13,30,24.40
2016,04,20,13,31,24.40
2016,04,20,13,32,24.50
2016,04,20,13,33,24.70
2016,04,20,13,34,24.80
2016,04,20,13,35,24.90
2016,04,20,13,36,24.90
2016,04,20,13,37,25.00
2016,04,20,13,38,25.00
2016,04,20,13,39,25.00
2016,04,20,13,40,25.10
2016,04,20,13,41,25.10
2016,04,20,13,42,25.20
2016,04,20,13,43,25.30
2016,04,20,13,44,25.40
2016,04,20,13,45,25.50
2016,04,20,13,46,25.60
2016,04,20,13,47,25.70
2016,04,20,13,48,25.70
2016,04,20,13,49,25.70
2016,04,20,13,50,25.70
2016,04,20,13,51,25.70
2016,04,20,13,52,25.80
2016,04,20,13,53,25.80
2016,04,20,13,54,25.80
2016,04,20,13,55,25.90
2016,04,20,13,56,25.90
2016,04,20,13,57,25.90
2016,04,20,13,58,25.90
2016,04,20,13,59,25.80
2016,04,20,14,00,25.80
2016,04,20,14,01,25.70
2016,04,20,14,02,25.70
2016,04,20,14,03,25.70
2016,04,20,14,04,25.60
2016,04,20,14,05,25.60
2016,04,20,14,06,25.60
2016,04,20,14,07,25.60
2016,04,20,14,08,25.60
2016,04,20,14,09,25.60
2016,04,20,14,10,25.70
2016,04,20,14,11,25.70
2016,04,20,14,12,25.70
2016,04,20,14,13,25.70
2016,04,20,14,14,25.70
2016,04,20,14,15,25.80
2016,04,20,14,16,25.80
2016,04,20,14,17,25.80
2016,04,20,14,18,25.90
2016,04,20,14,19,25.90
2016,04,20,14,20,25.90
2016,04,20,14,21,26.00
2016,04,20,14,22,26.10
2016,04,20,14,23,26.10
2016,04,20,14,24,26.00
2016,04,20,14,25,26.00
2016,04,20,14,26,25.90
2016,04,20,14,27,25.90
2016,04,20,14,28,25.90
2016,04,20,14,29,25.90
2016,04,20,14,30,26.00
2016,04,20,14,31,26.00
2016,04,20,14,32,26.10
2016,04,20,14,33,26.20
2016,04,20,14,34,26.30
2016,04,20,14,35,26.40
2016,04,20,14,36,26.50
2016,04,20,14,37,26.50
2016,04,20,14,38,26.40
2016,04,20,14,39,26.40
2016,04,20,14,40,26.40
2016,04,20,14,41,26.50
2016,04,20,14,42,26.50
2016,04,20,14,43,26.60
2016,04,20,14,44,26.60
2016,04,20,14,45,26.50
2016,04,20,14,46,26.50
2016,04,20,14,47,26.40
2016,04,20,14,48,26.50
2016,04,20,14,49,26.50
2016,04,20,14,50,26.60
2016,04,20,14,51,26.60
2016,04,20,14,52,26.60
2016,04,20,14,53,26.50
2016,04,20,14,54,26.30
2016,04,20,14,55,26.20
2016,04,20,14,56,26.10
2016,04,20,14,57,25.90
2016,04,20,14,58,25.70
2016,04,20,14,59,25.60
2016,04,20,15,00,25.50
2016,04,20,15,01,25.50
2016,04,20,15,02,25.40
2016,04,20,15,03,25.30
2016,04,20,15,04,25.10
2016,04,20,15,05,25.00
2016,04,20,15,06,24.90
2016,04,20,15,07,24.80
2016,04,20,15,08,24.70
2016,04,20,15,09,24.50
2016,04,20,15,10,24.40
2016,04,20,15,11,24.40
2016,04,20,15,12,24.40
2016,04,20,15,13,24.40
2016,04,20,15,14,24.50
2016,04,20,15,15,24.60
2016,04,20,15,16,24.60
2016,04,20,15,17,24.60
2016,04,20,15,18,24.70
2016,04,20,15,19,24.70
2016,04,20,15,20,24.80
2016,04,20,15,21,24.80
2016,04,20,15,22,24.90
2016,04,20,15,23,25.00
2016,04,20,15,24,25.10
2016,04,20,15,25,25.10
2016,04,20,15,26,25.20
2016,04,20,15,27,25.30
2016,04,20,15,28,25.40
2016,04,20,15,29,25.50
2016,04,20,15,30,25.60
2016,04,20,15,31,25.70
2016,04,20,15,32,25.90
2016,04,20,15,33,26.00
2016,04,20,15,34,26.20
2016,04,20,15,35,26.30
2016,04,20,15,36,26.50
2016,04,20,15,37,26.60
2016,04,20,15,38,26.60
2016,04,20,15,39,26.60
2016,04,20,15,40,26.60
2016,04,20,15,41,26.70
2016,04,20,15,42,26.70
2016,04,20,15,43,26.60
2016,04,20,15,44,26.60
2016,04,20,15,45,26.60
2016,04,20,15,46,26.70
2016,04,20,15,47,26.70
2016,04,20,15,48,26.70
2016,04,20,15,49,26.70
2016,04,20,15,50,26.70
2016,04,20,15,51,26.70
2016,04,20,15,52,26.80
2016,04,20,15,53,26.80
2016,04,20,15,54,26.50
2016,04,20,15,55,26.00
2016,04,20,15,56,25.50
2016,04,20,15,57,25.00
2016,04,20,15,58,24.60
2016,04,20,15,59,24.20
2016,04,20,16,00,23.90
2016,04,20,16,01,23.70
2016,04,20,16,02,23.60
2016,04,20,16,03,23.50
2016,04,20,16,04,23.50
2016,04,20,16,05,23.60
2016,04,20,16,06,23.70
2016,04,20,16,07,23.80
2016,04,20,16,08,24.00
2016,04,20,16,09,24.10
2016,04,20,16,10,24.40
2016,04,20,16,11,24.50
2016,04,20,16,12,24.60
2016,04,20,16,13,24.50
2016,04,20,16,14,24.40
2016,04,20,16,15,24.30
2016,04,20,16,16,24.20
2016,04,20,16,17,24.20
2016,04,20,16,18,24.20
2016,04,20,16,19,24.20
2016,04,20,16,20,24.30
2016,04,20,16,21,24.40
2016,04,20,16,22,24.50
2016,04,20,16,23,24.60
2016,04,20,16,24,24.60
2016,04,20,16,25,24.50
2016,04,20,16,26,24.30
2016,04,20,16,27,24.00
2016,04,20,16,28,23.80
2016,04,20,16,29,23.60
2016,04,20,16,30,23.60
2016,04,20,16,31,23.60
2016,04,20,16,32,23.60
2016,04,20,16,33,23.60
2016,04,20,16,34,23.60
2016,04,20,16,35,23.50
2016,04,20,16,36,23.40
2016,04,20,16,37,23.20
2016,04,20,16,38,23.10
2016,04,20,16,39,23.00
2016,04,20,16,40,22.90
2016,04,20,16,41,22.70
2016,04,20,16,42,22.50
2016,04,20,16,43,22.40
2016,04,20,16,44,22.30
2016,04,20,16,45,22.30
2016,04,20,16,46,22.30
2016,04,20,16,47,22.10
2016,04,20,16,48,21.90
2016,04,20,16,49,21.80
2016,04,20,16,50,21.70
2016,04,20,16,51,21.70
2016,04,20,16,52,21.80
2016,04,20,16,53,21.80
2016,04,20,16,54,21.80
2016,04,20,16,55,21.80
2016,04,20,16,56,21.80
2016,04,20,16,57,21.80
2016,04,20,16,58,21.80
2016,04,20,16,59,21.80
2016,04,20,17,00,21.80
2016,04,20,17,01,21.80
2016,04,20,17,02,21.70
2016,04,20,17,03,21.70
2016,04,20,17,04,21.70
2016,04,20,17,05,21.60
2016,04,20,17,06,21.70
2016,04,20,17,07,21.70
2016,04,20,17,08,21.70
2016,04,20,17,09,21.70
2016,04,20,17,10,21.70
2016,04,20,17,11,21.80
2016,04,20,17,12,21.90
2016,04,20,17,13,21.90
2016,04,20,17,14,21.90
2016,04,20,17,15,21.90
2016,04,20,17,16,21.90
2016,04,20,17,17,22.00
2016,04,20,17,18,22.00
2016,04,20,17,19,22.10